Weather History for Milwaukee, WI

Change the Weather History Date:

Monday, May 12, 2014

  Actual Average Record
Temperature  
Mean Temperature 67 °F 54 °F  
Max Temperature 81 °F 64 °F 87 °F (1900)
Min Temperature 52 °F 45 °F 31 °F (1883)
Degree Days  
Heating Degree Days 0 11  
Month to date heating degree days 134 152  
Since 1 July heating degree days 7524 6649  
Cooling Degree Days 2 1  
Month to date cooling degree days 2 2  
Year to date cooling degree days 2 7  
Growing Degree Days 16 (Base 50)    
Moisture  
Dew Point 59 °F    
Average Humidity 82    
Maximum Humidity 93    
Minimum Humidity 71    
Precipitation  
Precipitation 1.16 in 0.11 in 1.52 in (1978)
Month to date precipitation 1.47 1.26  
Year to date precipitation 9.59 10.50  
Snow  
Snow 0.00 in 0.00 in T in (1901)
Month to date snowfall 0.0 0.1  
Since 1 July snowfall 63.4 46.9  
Snow Depth 0.00 in    
Sea Level Pressure  
Sea Level Pressure 29.86 in    
Wind  
Wind Speed 9 mph (SE)    
Max Wind Speed 31 mph    
Max Gust Speed 44 mph    
Visibility 7 miles    
Events Rain , Thunderstorm    
T = Trace of Precipitation, MM = Missing Value Source: NWS Daily Summary

Daily Weather History Graph

Daily Weather History Graph

Search for Another Location

Airport:

Trip Planner

Search our weather history database for the weather conditions in past years. The results will help you decide how hot, cold, wet, or windy it might be!

Date:

Astronomy

May. 12, 2014 Rise Set
Actual Time 5:31 AM CDT 8:04 PM CDT
Civil Twilight 4:59 AM CDT 8:37 PM CDT
Nautical Twilight 4:19 AM CDT 9:17 PM CDT
Astronomical Twilight 3:33 AM CDT 10:03 PM CDT
Moon 5:59 PM CDT (5/12) 4:14 AM CDT (5/12)
Length of Visible Light 15h 37m
Length of Day
14h 33m
Waxing Gibbous, 95% of the Moon is Illuminated
May 12
Waxing Gibbous
May 14
Full
May 21
Last Quarter
May 28
New
Jun 5
First Quarter

Hourly Weather History & Observations

Time (CDT) Temp. Dew Point Humidity Pressure Visibility Wind Dir Wind Speed Gust Speed Precip Events Conditions
12:52 AM 54.0 °F 50.0 °F 86% 29.92 in 8.0 mi Calm Calm - N/A   Mostly Cloudy
1:52 AM 54.0 °F 50.0 °F 86% 29.90 in 9.0 mi SE 3.5 mph - N/A   Mostly Cloudy
2:52 AM 53.1 °F 50.0 °F 89% 29.86 in 7.0 mi SSE 5.8 mph - N/A   Mostly Cloudy
3:16 AM 53.1 °F 50.0 °F 89% 29.85 in 7.0 mi SSE 10.4 mph - 0.00 in Rain , Thunderstorm Light Thunderstorms and Rain
3:52 AM 55.0 °F 52.0 °F 89% 29.85 in 8.0 mi SSE 6.9 mph - 0.06 in Thunderstorm Thunderstorm
4:07 AM 55.0 °F 53.1 °F 93% 29.85 in 9.0 mi SSE 6.9 mph - N/A   Mostly Cloudy
4:52 AM 60.1 °F 55.9 °F 86% 29.84 in 10.0 mi South 10.4 mph - N/A   Mostly Cloudy
5:30 AM 55.9 °F 53.1 °F 90% 29.84 in 4.0 mi SE 5.8 mph - N/A   Mostly Cloudy
5:52 AM 55.9 °F 54.0 °F 93% 29.83 in 3.0 mi SE 4.6 mph - N/A   Mostly Cloudy
6:18 AM 55.9 °F 54.0 °F 93% 29.85 in 2.5 mi ESE 5.8 mph - N/A   Overcast
6:52 AM 55.9 °F 54.0 °F 93% 29.86 in 3.0 mi SE 3.5 mph - N/A   Overcast
7:52 AM 59.0 °F 55.9 °F 90% 29.85 in 3.0 mi ESE 5.8 mph - N/A   Overcast
8:36 AM 60.1 °F 57.0 °F 90% 29.86 in 3.0 mi Calm Calm - N/A   Overcast
8:52 AM 62.6 °F 57.2 °F 82% 29.86 in 3.0 mi Calm Calm - N/A   Overcast
9:52 AM 69.1 °F 64.0 °F 84% 29.86 in 9.0 mi South 10.4 mph - N/A   Mostly Cloudy
10:00 AM 70.0 °F 64.9 °F 84% 29.86 in 9.0 mi South 9.2 mph - N/A   Scattered Clouds
10:28 AM 75.0 °F 68.0 °F 79% 29.83 in 10.0 mi South 12.7 mph - N/A   Mostly Cloudy
10:52 AM 77.0 °F 68.0 °F 74% 29.84 in 9.0 mi SSW 15.0 mph 24.2 mph N/A   Mostly Cloudy
11:52 AM 79.0 °F 68.0 °F 69% 29.85 in 10.0 mi SW 16.1 mph 24.2 mph N/A   Overcast
12:52 PM 73.9 °F 61.0 °F 64% 29.89 in 10.0 mi NNW 16.1 mph 28.8 mph 0.00 in Rain Light Rain
1:00 PM 70.0 °F 62.1 °F 76% 29.91 in 9.0 mi WNW 15.0 mph 23.0 mph 0.00 in Rain Light Rain
1:08 PM 66.9 °F 63.0 °F 87% 29.89 in 1.8 mi NNW 13.8 mph 23.0 mph 0.05 in Rain Rain
1:10 PM 66.9 °F 63.0 °F 87% 29.88 in 1.2 mi NNW 10.4 mph - 0.09 in Rain , Thunderstorm Heavy Thunderstorms and Rain
1:23 PM 66.9 °F 63.0 °F 87% 29.89 in 2.0 mi NE 5.8 mph - 0.16 in Rain , Thunderstorm Light Thunderstorms and Rain
1:41 PM 64.0 °F 62.1 °F 93% 29.88 in 10.0 mi East 5.8 mph - 0.16 in   Overcast
1:52 PM 63.0 °F 61.0 °F 93% 29.87 in 9.0 mi East 12.7 mph - 0.16 in   Overcast
2:52 PM 71.1 °F 64.9 °F 81% 29.85 in 10.0 mi SE 6.9 mph - N/A   Mostly Cloudy
3:52 PM 72.0 °F 64.0 °F 76% 29.82 in 10.0 mi ESE 11.5 mph - N/A   Mostly Cloudy
4:52 PM 62.1 °F 57.0 °F 84% 29.83 in 10.0 mi SE 6.9 mph - N/A   Overcast
5:52 PM 64.9 °F 60.1 °F 84% 29.83 in 10.0 mi SSE 6.9 mph - 0.00 in Rain Light Rain
6:52 PM 66.0 °F 61.0 °F 84% 29.82 in 10.0 mi NNE 4.6 mph - 0.00 in   Mostly Cloudy
7:45 PM 70.0 °F 63.0 °F 78% 29.88 in 10.0 mi WNW 18.4 mph 25.3 mph 0.01 in Thunderstorm Thunderstorm
7:52 PM 70.0 °F 57.0 °F 63% 29.86 in 10.0 mi NW 21.9 mph 36.8 mph 0.01 in Rain , Thunderstorm Light Thunderstorms and Rain
8:08 PM 64.0 °F 60.1 °F 87% 29.86 in 2.0 mi North 16.1 mph 39.1 mph 0.18 in Rain , Thunderstorm Heavy Thunderstorms and Rain
8:27 PM 66.0 °F 61.0 °F 84% 29.84 in 4.0 mi ENE 10.4 mph - 0.37 in Rain , Thunderstorm Thunderstorms and Rain
8:33 PM 66.2 °F 60.8 °F 83% 29.82 in 2.5 mi East 15.0 mph - N/A Rain , Thunderstorm Thunderstorms and Rain
8:44 PM 66.9 °F 62.1 °F 84% 29.80 in 7.0 mi East 13.8 mph - 0.60 in Rain , Thunderstorm Thunderstorms and Rain
8:52 PM 68.0 °F 60.1 °F 76% 29.80 in 10.0 mi ESE 16.1 mph - 0.60 in Rain , Thunderstorm Light Thunderstorms and Rain
9:52 PM 64.4 °F 62.6 °F 94% 29.86 in 10.0 mi SSE 4.6 mph - N/A Rain , Thunderstorm Light Thunderstorms and Rain
10:52 PM 66.0 °F 62.1 °F 87% 29.89 in 9.0 mi WSW 13.8 mph - 0.12 in Rain , Thunderstorm Light Thunderstorms and Rain
11:52 PM 64.9 °F 62.1 °F 90% 29.91 in 6.0 mi WSW 13.8 mph - 0.06 in Rain Light Rain